Flag for U.S.A. Weather past 2 weeks in Provincetown, Massachusetts, U.S.A.

Now
36 °F

Clear.


Feels Like: 27 °F
Forecast: 35 / 43 °F
Wind: 12 mph from West

Location: Provincetown Weather Reporting Station

Current Time: Mar 31, 2015 at 4:47:37 AM

Latest Report: Mar 31, 2015 at 4:15 AM


Visibility: 10 mi

Pressure: 29.70 "Hg

Humidity: 75%

Dew point: 28 °F

Location of ProvincetownLocation

Historic Weather in Provincetown — Graph

°F

Provincetown temperature yesterday

Maximum temperature yesterday: 41 °F (at 4:55 PM)
Minimum temperature yesterday: 34 °F (at 12:15 AM)
Average temperature yesterday: 37 °F

Past Weeks' High & Low Weather Summary

 TemperatureHumidityPressure
High54 °F (Mar 26, 10:35 PM)100% (Mar 21, 3:35 AM)30.43 "Hg (Mar 21, 3:35 AM)
Low19 °F (Mar 23, 5:35 AM)29% (Mar 18, 4:55 PM)29.37 "Hg (Mar 17, 3:55 PM)
Average34 °F64%29.98 "Hg
* Reported Mar 16 3:15 AM — Mar 31 3:35 AM, Provincetown, Weather by CustomWeather, © 2015

Note: Actual official high and low records may vary slightly from our data, if they occured in-between our weather recording intervals... More about our weather records

Advertising

Provincetown weather history for previous 24 hours

 ConditionsComfort  
Time TempWeatherWind HumidityBarometerVisibility
3:35 AM
Tue, Mar 31
36 °FClear.13 mph75%29.70 "Hg10 mi
3:15 AM36 °FClear.15 mph75%29.70 "Hg10 mi
2:55 AM36 °FClear.13 mph75%29.70 "Hg10 mi
2:35 AM36 °FClear.12 mph75%29.71 "Hg10 mi
2:15 AM36 °FClear.13 mph75%29.71 "Hg10 mi
1:55 AM37 °FClear.13 mph70%29.72 "Hg10 mi
1:35 AM37 °FClear.12 mph70%29.73 "Hg10 mi
1:15 AM37 °FClear.13 mph70%29.73 "Hg10 mi
12:55 AM37 °FClear.14 mph70%29.74 "Hg10 mi
12:35 AM36 °FClear.13 mph81%29.74 "Hg10 mi
12:15 AM36 °FClear.13 mph87%29.75 "Hg10 mi
11:55 PM
Mon, Mar 30
36 °FClear.10 mph87%29.75 "Hg10 mi
11:35 PM36 °FClear.12 mph87%29.76 "Hg10 mi
10:55 PM36 °FPassing clouds.13 mph87%29.76 "Hg10 mi
10:35 PM36 °FClear.9 mph81%29.76 "Hg10 mi
10:15 PM36 °FClear.9 mph87%29.76 "Hg10 mi
9:55 PM36 °FClear.10 mph93%29.76 "Hg10 mi
9:35 PM36 °FPassing clouds.13 mph81%29.76 "Hg10 mi
9:15 PM36 °FClear.12 mph93%29.76 "Hg10 mi
8:55 PM36 °FClear.12 mph93%29.76 "Hg10 mi
8:35 PM36 °FClear.12 mph87%29.76 "Hg10 mi
7:55 PM37 °FScattered clouds.6 mph75%29.74 "Hg10 mi
7:35 PM37 °FPartly sunny.7 mph81%29.74 "Hg10 mi
7:15 PM37 °FPartly sunny.6 mph75%29.74 "Hg10 mi
6:55 PM37 °FScattered clouds.7 mph81%29.74 "Hg10 mi
6:35 PM39 °FScattered clouds.7 mph75%29.74 "Hg10 mi
6:15 PM41 °FOvercast.10 mph76%29.74 "Hg10 mi
5:55 PM39 °FMore clouds than sun.9 mph81%29.74 "Hg10 mi
5:35 PM39 °FMore clouds than sun.10 mph81%29.74 "Hg10 mi
5:15 PM41 °FPartly sunny.14 mph81%29.74 "Hg10 mi
4:55 PM41 °FOvercast.15 mph81%29.74 "Hg10 mi
4:35 PM39 °FOvercast.13 mph75%29.74 "Hg10 mi
4:15 PM39 °FMore clouds than sun.12 mph81%29.74 "Hg10 mi
3:55 PM39 °FOvercast.13 mph81%29.75 "Hg10 mi
3:35 PM39 °FOvercast.14 mph75%29.74 "Hg10 mi
3:15 PM39 °FOvercast.13 mph75%29.76 "Hg10 mi
2:55 PM39 °FOvercast.13 mph70%29.77 "Hg10 mi
2:35 PM39 °FOvercast.13 mph70%29.78 "Hg10 mi
2:15 PM39 °FOvercast.12 mph70%29.78 "Hg10 mi
1:55 PM37 °FOvercast.13 mph75%29.79 "Hg10 mi
1:35 PM39 °FOvercast.15 mph65%29.80 "Hg10 mi
1:15 PM39 °FMostly cloudy.14 mph65%29.81 "Hg10 mi
12:55 PM39 °FOvercast.14 mph70%29.83 "Hg10 mi
12:35 PM39 °FMostly cloudy.13 mph65%29.85 "Hg10 mi
12:15 PM39 °FOvercast.17 mph70%29.86 "Hg10 mi
11:55 AM39 °FMostly cloudy.15 mph70%29.86 "Hg10 mi
11:35 AM39 °FMostly cloudy.16 mph61%29.86 "Hg10 mi
11:15 AM37 °FMostly cloudy.15 mph70%29.88 "Hg10 mi
10:55 AM37 °FPartly sunny.21 mph65%29.90 "Hg10 mi
10:35 AM37 °FCloudy.16 mph70%29.91 "Hg10 mi
10:15 AM39 °FPartly sunny.15 mph65%29.92 "Hg10 mi
9:55 AM37 °FBroken clouds.12 mph70%29.92 "Hg10 mi
9:35 AM37 °FScattered clouds.14 mph70%29.92 "Hg10 mi
9:15 AM37 °FScattered clouds.14 mph65%29.93 "Hg10 mi
8:55 AM37 °FPartly sunny.14 mph75%29.94 "Hg10 mi
8:35 AM37 °FPassing clouds.14 mph75%29.95 "Hg10 mi
8:15 AM37 °FSunny.15 mph70%29.96 "Hg10 mi
7:55 AM37 °FSunny.12 mph70%29.97 "Hg10 mi
7:35 AM36 °FSunny.13 mph75%29.98 "Hg10 mi
7:15 AM36 °FClear.12 mph75%29.98 "Hg10 mi
6:55 AM34 °FClear.12 mph75%29.98 "Hg10 mi
6:35 AM34 °FClear.14 mph81%30.00 "Hg10 mi
6:15 AM34 °FClear.13 mph75%30.01 "Hg10 mi
5:55 AM34 °FClear.15 mph81%30.02 "Hg10 mi
5:35 AM34 °FClear.14 mph81%30.02 "Hg10 mi
5:15 AM34 °FClear.13 mph75%30.02 "Hg10 mi
4:55 AM34 °FClear.13 mph75%30.02 "Hg10 mi
4:35 AM34 °FClear.13 mph81%30.03 "Hg10 mi
4:15 AM34 °FClear.12 mph81%30.04 "Hg10 mi
Weather by CustomWeather, © 2015

See weather overviewHow to use our weather pages